This is the latest recevied weather packets stored in our database for station/object KC5DAQ-22. If no packets are shown the sender has not sent any weather packets the latest 10 day(s).
| Time | Temp. | Humidity | Pressure | Rain* | Wind** | Luminosity | Snow |
|---|---|---|---|---|---|---|---|
| 1778351372 | 30° C | 71% | 1007.5 hPa | 0 mm | - | 513 W/m² | - |
| 1778351312 | 30° C | 71% | 1007.5 hPa | 0 mm | - | 540 W/m² | - |
| 1778351252 | 30° C | 71% | 1007.6 hPa | 0 mm | - | 564 W/m² | - |
| 1778351191 | 30° C | 71% | 1007.5 hPa | 0 mm | - | 921 W/m² | - |
| 1778351131 | 30° C | 71% | 1007.6 hPa | 0 mm | - | 478 W/m² | - |
| 1778351070 | 30° C | 70% | 1007.5 hPa | 0 mm | - | 549 W/m² | - |
| 1778351012 | 30° C | 70% | 1007.5 hPa | 0 mm | - | 528 W/m² | - |
| 1778350952 | 30° C | 70% | 1007.6 hPa | 0 mm | - | 496 W/m² | - |
| 1778350891 | 30° C | 70% | 1007.5 hPa | 0 mm | - | 564 W/m² | - |
| 1778350834 | 30° C | 70% | 1007.6 hPa | 0 mm | - | 418 W/m² | - |
| 1778350772 | 30° C | 70% | 1007.6 hPa | 0 mm | - | 413 W/m² | - |
| 1778350711 | 30° C | 71% | 1007.6 hPa | 0 mm | - | 403 W/m² | - |
| 1778350650 | 30° C | 70% | 1007.7 hPa | 0 mm | - | 491 W/m² | - |
| 1778350592 | 30° C | 70% | 1007.7 hPa | 0 mm | - | 489 W/m² | - |
| 1778350531 | 30° C | 70% | 1007.7 hPa | 0 mm | - | 431 W/m² | - |
| 1778350471 | 30.56° C | 69% | 1007.7 hPa | 0 mm | - | 461 W/m² | - |
| 1778350411 | 30.56° C | 69% | 1007.7 hPa | 0 mm | - | 883 W/m² | - |
| 1778350351 | 30.56° C | 70% | 1007.7 hPa | 0 mm | - | 923 W/m² | - |
| 1778350291 | 30.56° C | 69% | 1007.8 hPa | 0 mm | - | 953 W/m² | - |
| 1778350231 | 31.11° C | 68% | 1007.7 hPa | 0 mm | - | 642 W/m² | - |
| 1778350171 | 31.11° C | 68% | 1007.9 hPa | 0 mm | - | 489 W/m² | - |
| 1778350111 | 31.67° C | 67% | 1007.9 hPa | 0 mm | - | 401 W/m² | - |
| 1778350051 | 31.67° C | 67% | 1007.9 hPa | 0 mm | - | 677 W/m² | - |
| 1778349989 | 31.67° C | 69% | 1007.9 hPa | 0 mm | - | 876 W/m² | - |
| 1778349927 | 31.67° C | 68% | 1007.9 hPa | 0 mm | - | 1173 W/m² | - |
* Rain latest hour (hover to see other rain measurements)
** Current wind speed in m/s (hover to see current wind gust speed)